Orbital Elements at Epoch 2459200.5 (2020-Dec-17.0) TDB
Reference: JPL 27 (heliocentric ecliptic J2000)
Element | Value | Uncertainty (1-sigma) | Units |
e | .06065826568113475 | 5.7384e-08 | |
a | 5.192913392610223 | 1.0036e-07 | au |
q | 4.877920272382149 | 3.7055e-07 | au |
i | 7.249375638747014 | 4.8971e-06 | deg |
node | 49.03429160479726 | 4.573e-05 | deg |
peri | 9.686453001616004 | 6.9543e-05 | deg |
M | 308.9481966816548 | 5.3922e-05 | deg |
tp | 2459813.448000618697 (2022-Aug-21.94800062) | 0.00065474 | TDB |
period | 4322.301385648362 11.83 | 0.0001253 3.431e-07 | d yr |
n | .08328896295740344 | 2.4146e-09 | deg/d |
Q | 5.507906512838297 | 1.0645e-07 | au |
|
| | Orbit Determination Parameters
Additional Information
|